Location: Godzisko
(49.9648°N, 19.4576°E)
Time: 07:18:43
(UTC+00:00)

DELTA 2 DEB (DPAF) - Pass Details

Date: 20 April 2021
Orbit: 641 x 644 km, 98.4° (Epoch: 06 May)

Event Time Altitude Azimuth Distance (km) Brightness Sun altitude
Exits shadow 00:44:20 46° 143° (SE) 868 4.6 -22.8°
Maximum altitude 00:45:35 73° 72° (ENE) 677 4.2 -22.7°
Drops below altitude 10° 00:50:03 10° 349° (N) 2,051 7.3 -22.3°
Sets 00:52:16 0° 348° (NNW) 2,966 8.2 -22.1°
